Location: Oroua River
(40.4333°S, 175.4333°E)
Time: 14:22:23
(UTC+00:00)

Cosmos 2195 Rocket - Pass Details

Date: 03 February 2023
Orbit: 948 x 993 km, 82.9° (Epoch: 22 March)

Event Time Altitude Azimuth Distance (km) Brightness Sun altitude
Rises 16:51:10 0° 190° (S) 3,660 7.8 -7.3°
Reaches altitude 10° 16:53:41 10° 191° (S) 2,705 7.1 -6.9°
Maximum altitude 16:59:51 74° 274° (W) 999 4.5 -5.9°
Drops below altitude 10° 17:05:56 10° 358° (N) 2,677 6.5 -4.8°
Sets 17:08:25 0° 359° (N) 3,618 7.2 -4.4°
